West Palm Beach, FL

8:30 AM EST on December 09, 2019 (GMT -0500)
Palm Beach International

Weather History for KPBI - October, 2019

Change the Weather History Date:

Thursday, October 17, 2019

  Actual Average Record
Temperature  
Mean Temperature 83 °F 78 °F  
Max Temperature 89 °F 85 °F 91 °F (1911)
Min Temperature 76 °F 72 °F 54 °F (1977)
Degree Days  
Heating Degree Days 0 0  
Month to date heating degree days 0 0  
Since 1 July heating degree days 0 0  
Cooling Degree Days 18 13  
Month to date cooling degree days 283 247  
Year to date cooling degree days 3992 3455  
Growing Degree Days 32 (Base 50)    
Moisture  
Dew Point 73 °F    
Average Humidity 75    
Maximum Humidity 94    
Minimum Humidity 55    
Precipitation  
Precipitation 0.00 in 0.14 in 4.53 in (1919)
Month to date precipitation 4.17 3.04  
Year to date precipitation 52.16 52.11  
Snow  
Snow 0.00 in - - ()
Month to date snowfall 0.0  
Since 1 July snowfall 0.0  
Since 1 September snowfall 0.0  
Snow Depth 0.00 in    
Sea Level Pressure  
Sea Level Pressure 29.91 in    
Wind  
Wind Speed 6 mph (West)    
Max Wind Speed 15 mph    
Max Gust Speed 17 mph    
Visibility 10 miles    
Events      
T = Trace of Precipitation, MM = Missing Value Source: NWS Daily Summary

Daily Weather History Graph

Daily Weather History Graph

Search for Another Location

Airport or City:

Astronomy

Oct. 17, 2019 Rise Set
Actual Time 7:20 AM EDT 6:50 PM EDT
Civil Twilight 6:57 AM EDT 7:13 PM EDT
Nautical Twilight 6:30 AM EDT 7:40 PM EDT
Astronomical Twilight 6:03 AM EDT 8:07 PM EDT
Moon 9:38 PM EDT (10/17) 10:35 AM EDT (10/17)
Length of Visible Light 12h 16m
Length of Day
11h 29m
Waning Gibbous, 87% of the Moon is Illuminated
Oct 17
Waning Gibbous
Oct 21
Last Quarter
Oct 27
New
Nov 4
First Quarter
Nov 12
Full

Hourly Weather History & Observations

Time (EDT) Temp. Heat Index Dew Point Humidity Pressure Visibility Wind Dir Wind Speed Gust Speed Precip Events Conditions
12:53 AM 78.1 °F - 72.0 °F 81% 29.90 in 10.0 mi West 9.2 mph - N/A   Clear
1:53 AM 77.0 °F - 72.0 °F 84% 29.91 in 10.0 mi WNW 9.2 mph - N/A   Partly Cloudy
2:53 AM 77.0 °F - 73.0 °F 88% 29.90 in 10.0 mi West 6.9 mph - N/A   Partly Cloudy
3:53 AM 77.0 °F - 73.0 °F 88% 29.89 in 10.0 mi WSW 6.9 mph - N/A   Partly Cloudy
4:53 AM 75.9 °F - 73.0 °F 91% 29.88 in 10.0 mi West 5.8 mph - N/A   Partly Cloudy
5:53 AM 75.9 °F - 73.0 °F 91% 29.89 in 10.0 mi West 6.9 mph - N/A   Partly Cloudy
6:53 AM 75.9 °F - 73.9 °F 94% 29.91 in 10.0 mi West 5.8 mph - N/A   Scattered Clouds
7:53 AM 75.9 °F - 73.9 °F 94% 29.93 in 10.0 mi West 5.8 mph - N/A   Scattered Clouds
8:29 AM 77.0 °F - 75.0 °F 94% 29.94 in 10.0 mi WNW 6.9 mph - N/A   Scattered Clouds
8:35 AM 78.1 °F - 75.0 °F 90% 29.94 in 10.0 mi WNW 9.2 mph - N/A   Mostly Cloudy
8:53 AM 78.1 °F - 75.0 °F 90% 29.94 in 10.0 mi West 8.1 mph - N/A   Mostly Cloudy
9:00 AM 79.0 °F - 73.9 °F 84% 29.94 in 10.0 mi WNW 5.8 mph - N/A   Scattered Clouds
9:53 AM 81.0 °F 85.8 °F 73.0 °F 77% 29.95 in 10.0 mi Variable 5.8 mph - N/A   Scattered Clouds
10:53 AM 82.9 °F 88.0 °F 72.0 °F 69% 29.96 in 10.0 mi West 6.9 mph - N/A   Scattered Clouds
11:53 AM 84.9 °F 91.4 °F 73.0 °F 67% 29.94 in 10.0 mi West 8.1 mph - N/A   Scattered Clouds
12:53 PM 84.9 °F 90.7 °F 72.0 °F 65% 29.93 in 10.0 mi Variable 4.6 mph - N/A   Scattered Clouds
1:53 PM 84.9 °F 90.1 °F 71.1 °F 63% 29.90 in 10.0 mi West 9.2 mph - N/A   Scattered Clouds
2:53 PM 88.0 °F 93.8 °F 71.1 °F 57% 29.89 in 10.0 mi NW 13.8 mph - N/A   Mostly Cloudy
3:53 PM 88.0 °F 92.9 °F 70.0 °F 55% 29.88 in 10.0 mi NW 8.1 mph - N/A   Scattered Clouds
4:53 PM 88.0 °F 92.9 °F 70.0 °F 55% 29.87 in 10.0 mi NW 11.5 mph - N/A   Mostly Cloudy
5:53 PM 82.9 °F 89.4 °F 73.9 °F 74% 29.89 in 10.0 mi SE 9.2 mph - N/A   Mostly Cloudy
6:53 PM 81.0 °F 86.2 °F 73.9 °F 79% 29.89 in 10.0 mi SE 5.8 mph - N/A   Mostly Cloudy
7:53 PM 81.0 °F 85.8 °F 73.0 °F 77% 29.90 in 10.0 mi South 5.8 mph - N/A   Mostly Cloudy
8:53 PM 81.0 °F 85.2 °F 72.0 °F 74% 29.91 in 10.0 mi Calm Calm - N/A   Mostly Cloudy
9:53 PM 80.1 °F 84.2 °F 73.0 °F 79% 29.91 in 10.0 mi Calm Calm - N/A   Scattered Clouds
10:53 PM 80.1 °F 84.2 °F 73.0 °F 79% 29.92 in 10.0 mi Calm Calm - N/A   Partly Cloudy
11:53 PM 79.0 °F - 73.0 °F 82% 29.93 in 10.0 mi Calm Calm - N/A   Partly Cloudy